Retour au catalogue

STARLINK-30574

ActifCommunicationsVLEO
NORAD 58094·PAYLOAD·🇺🇸 United States

Lancé Oct 18, 2023 depuis Cape Canaveral Space Force Station

Loading…

Prochains Passages (prochaines 24 heures)

TLE

FraisSource: CelesTrak SupGP

Époque: Sep 14, 2026, 22:02 UTC

1 58094C 23160V   26257.91854167  .00035268  00000+0  12776-2 0  2576
2 58094  42.9995  89.0344 0001424 272.6216 246.1313 15.27555515    13

Suivez STARLINK-30574 en temps réel avec AllMySat

Download on the App Store